| time (UTC) | temp F | wind direction | speed MPH | gust MPH | rain 1hr in | rain 24hr in | rain mn in | humidity % | barometer mb |
| 20260904024033 | 55 | 183 | 0.0 | 4.0 | 0.01 | 0.61 | 0.61 | 92 | 1008.8 |
| 20260904023533 | 55 | 158 | 0.0 | 2.0 | 0.01 | 0.61 | 0.61 | 92 | 1008.8 |
| 20260904023036 | 56 | 161 | 0.0 | 4.0 | 0.02 | 0.61 | 0.61 | 92 | 1008.8 |
| 20260904023032 | 55 | 138 | 0.0 | 4.0 | 0.01 | 0.61 | 0.61 | 92 | 1008.8 |
| 20260904022646 | 56 | 161 | 1.0 | 4.0 | 0.04 | 0.61 | 0.61 | 92 | 1008.8 |
| 20260904021530 | 56 | 185 | 1.0 | 4.0 | 0.05 | 0.61 | 0.61 | 92 | 1008.8 |
| 20260904021030 | 56 | 166 | 0.0 | 4.0 | 0.06 | 0.61 | 0.61 | 92 | 1008.7 |
| 20260904020528 | 56 | 144 | 1.0 | 4.0 | 0.06 | 0.61 | 0.61 | 91 | 1008.7 |
| 20260904020027 | 56 | 175 | 1.0 | 4.0 | 0.06 | 0.61 | 0.61 | 91 | 1008.7 |
| 20260904015525 | 56 | 163 | 1.0 | 5.0 | 0.06 | 0.61 | 0.61 | 91 | 1008.7 |
| 20260904015030 | 56 | 179 | 1.0 | 5.0 | 0.05 | 0.60 | 0.61 | 92 | 1008.8 |
| 20260904015025 | 56 | 149 | 1.0 | 5.0 | 0.06 | 0.61 | 0.61 | 92 | 1008.7 |
| 20260904014025 | 56 | 159 | 1.0 | 4.0 | 0.05 | 0.60 | 0.60 | 91 | 1008.8 |
| 20260904013524 | 56 | 180 | 1.0 | 4.0 | 0.05 | 0.60 | 0.60 | 91 | 1008.6 |
| 20260904013022 | 56 | 166 | 1.0 | 5.0 | 0.05 | 0.60 | 0.60 | 90 | 1008.7 |
| 20260904012524 | 57 | 121 | 2.0 | 5.0 | 0.04 | 0.59 | 0.59 | 90 | 1008.6 |
| 20260904012022 | 57 | 182 | 1.0 | 5.0 | 0.02 | 0.57 | 0.57 | 89 | 1008.6 |
| 20260904011522 | 57 | 132 | 2.0 | 8.0 | 0.01 | 0.56 | 0.56 | 89 | 1008.6 |
| 20260904011022 | 58 | 180 | 2.0 | 8.0 | 0.01 | 0.55 | 0.55 | 89 | 1008.6 |
| 20260904010528 | 58 | 157 | 1.0 | 4.0 | 0.03 | 0.55 | 0.55 | 90 | 1008.5 |
| 20260904010522 | 58 | 182 | 1.0 | 8.0 | 0.01 | 0.55 | 0.55 | 89 | 1008.5 |
| 20260904010022 | 58 | 169 | 1.0 | 8.0 | 0.02 | 0.55 | 0.55 | 89 | 1008.5 |
| 20260904005029 | 58 | 129 | 0.0 | 2.0 | 0.05 | 0.55 | 0.55 | 90 | 1008.6 |
| 20260904005022 | 58 | 178 | 1.0 | 4.0 | 0.03 | 0.55 | 0.55 | 90 | 1008.6 |
| 20260904004523 | 58 | 169 | 0.0 | 3.0 | 0.04 | 0.55 | 0.55 | 90 | 1008.6 |
| 20260904004023 | 58 | 189 | 0.0 | 3.0 | 0.04 | 0.55 | 0.55 | 90 | 1008.6 |
| 20260904003028 | 58 | 128 | 0.0 | 2.0 | 0.05 | 0.55 | 0.55 | 91 | 1008.7 |
| 20260904003023 | 58 | 128 | 0.0 | 2.0 | 0.05 | 0.55 | 0.55 | 90 | 1008.6 |
| 20260904002022 | 57 | 128 | 0.0 | 2.0 | 0.05 | 0.55 | 0.55 | 90 | 1008.8 |
| 20260904001523 | 57 | 127 | 0.0 | 2.0 | 0.05 | 0.55 | 0.55 | 89 | 1008.7 |
| 20260904001024 | 57 | 127 | 0.0 | 2.0 | 0.04 | 0.54 | 0.55 | 89 | 1008.8 |
| 20260904000523 | 57 | 127 | 0.0 | 2.0 | 0.04 | 0.54 | 0.54 | 89 | 1008.8 |
| 20260904000023 | 57 | 127 | 0.0 | 2.0 | 0.03 | 0.53 | 0.53 | 88 | 1008.8 |
| 20260903235522 | 58 | 127 | 0.0 | 2.0 | 0.02 | 0.52 | 0.52 | 89 | 1008.9 |
| 20260903235022 | 58 | 117 | 0.0 | 2.0 | 0.02 | 0.52 | 0.52 | 88 | 1008.9 |
| 20260903234523 | 58 | 172 | 0.0 | 3.0 | 0.01 | 0.51 | 0.51 | 88 | 1008.9 |
| 20260903234022 | 58 | 96 | 1.0 | 3.0 | 0.01 | 0.51 | 0.51 | 87 | 1008.9 |
| 20260903233523 | 58 | 170 | 0.0 | 2.0 | 0.00 | 0.50 | 0.50 | 87 | 1008.9 |
| 20260903233022 | 58 | 169 | 1.0 | 3.0 | 0.00 | 0.50 | 0.50 | 87 | 1008.9 |
| 20260903232524 | 58 | 168 | 1.0 | 4.0 | 0.00 | 0.50 | 0.50 | 86 | 1008.9 |
| 20260903232023 | 59 | 142 | 1.0 | 4.0 | 0.00 | 0.50 | 0.50 | 83 | 1008.8 |
| 20260903231522 | 59 | 146 | 1.0 | 5.0 | 0.00 | 0.50 | 0.50 | 83 | 1008.9 |
| 20260903231023 | 60 | 174 | 1.0 | 5.0 | 0.00 | 0.50 | 0.50 | 84 | 1008.8 |
| 20260903230522 | 60 | 167 | 1.0 | 5.0 | 0.00 | 0.50 | 0.50 | 85 | 1008.8 |
| 20260903230028 | 60 | 188 | 1.0 | 6.0 | 0.00 | 0.50 | 0.50 | 86 | 1008.7 |
| 20260903230022 | 60 | 179 | 1.0 | 5.0 | 0.00 | 0.50 | 0.50 | 85 | 1008.7 |
| 20260903225023 | 60 | 166 | 2.0 | 6.0 | 0.00 | 0.51 | 0.50 | 86 | 1008.8 |
| 20260903224522 | 60 | 182 | 2.0 | 6.0 | 0.00 | 0.51 | 0.50 | 89 | 1008.8 |
| 20260903224022 | 59 | 152 | 2.0 | 8.0 | 0.00 | 0.51 | 0.50 | 89 | 1008.9 |
| 20260903223520 | 58 | 186 | 2.0 | 8.0 | 0.00 | 0.51 | 0.50 | 90 | 1009.0 |
| 20260903223020 | 58 | 178 | 1.0 | 4.0 | 0.00 | 0.51 | 0.50 | 90 | 1009.0 |
| 20260903222521 | 57 | 155 | 1.0 | 4.0 | 0.00 | 0.51 | 0.50 | 90 | 1009.1 |
| 20260903222022 | 57 | 153 | 1.0 | 3.0 | 0.00 | 0.51 | 0.50 | 89 | 1009.2 |
| 20260903221519 | 57 | 108 | 1.0 | 3.0 | 0.00 | 0.51 | 0.50 | 89 | 1009.2 |
| 20260903221018 | 57 | 134 | 1.0 | 4.0 | 0.00 | 0.51 | 0.50 | 89 | 1009.2 |
| 20260903220518 | 57 | 159 | 0.0 | 4.0 | 0.00 | 0.51 | 0.50 | 89 | 1009.2 |
| 20260903220018 | 56 | 63 | 0.0 | 4.0 | 0.00 | 0.51 | 0.50 | 89 | 1009.2 |
| 20260903215519 | 56 | 61 | 1.0 | 4.0 | 0.00 | 0.51 | 0.50 | 88 | 1009.2 |
| 20260903215022 | 56 | 202 | 0.0 | 4.0 | 0.00 | 0.51 | 0.50 | 89 | 1009.4 |
| 20260903215018 | 56 | 94 | 1.0 | 3.0 | 0.00 | 0.51 | 0.50 | 89 | 1009.2 |
| 20260903214516 | 56 | 144 | 1.0 | 4.0 | 0.00 | 0.51 | 0.50 | 89 | 1009.3 |
| 20260903213518 | 56 | 170 | 0.0 | 2.0 | 0.00 | 0.51 | 0.50 | 89 | 1009.3 |
| 20260903213514 | 56 | 152 | 0.0 | 2.0 | 0.00 | 0.51 | 0.50 | 88 | 1009.3 |
| 20260903212514 | 56 | 173 | 0.0 | 2.0 | 0.00 | 0.51 | 0.50 | 88 | 1009.4 |
| 20260903212014 | 56 | 164 | 0.0 | 3.0 | 0.00 | 0.51 | 0.50 | 87 | 1009.3 |
| 20260903211517 | 56 | 178 | 0.0 | 3.0 | 0.01 | 0.51 | 0.50 | 89 | 1009.3 |
| 20260903211512 | 56 | 171 | 0.0 | 3.0 | 0.01 | 0.51 | 0.50 | 88 | 1009.1 |
| 20260903210509 | 56 | 171 | 0.0 | 3.0 | 0.01 | 0.51 | 0.50 | 88 | 1009.1 |
| 20260903210008 | 56 | 167 | 1.0 | 4.0 | 0.01 | 0.51 | 0.50 | 89 | 1009.1 |
| 20260903205508 | 56 | 165 | 1.0 | 4.0 | 0.01 | 0.51 | 0.50 | 87 | 1009.2 |
| 20260903205008 | 56 | 170 | 1.0 | 2.0 | 0.01 | 0.51 | 0.50 | 86 | 1009.2 |
| 20260903204508 | 56 | 174 | 0.0 | 2.0 | 0.01 | 0.51 | 0.50 | 87 | 1009.2 |
| 20260903204013 | 56 | 174 | 0.0 | 4.0 | 0.01 | 0.51 | 0.50 | 89 | 1009.4 |
| 20260903204009 | 56 | 174 | 0.0 | 4.0 | 0.01 | 0.51 | 0.50 | 88 | 1009.2 |
| 20260903203507 | 56 | 165 | 2.0 | 6.0 | 0.02 | 0.51 | 0.50 | 86 | 1009.4 |
| 20260903203110 | 56 | 186 | 1.0 | 6.0 | 0.01 | 0.51 | 0.50 | 90 | 1009.4 |
| 20260903202619 | 56 | 188 | 2.0 | 6.0 | 0.02 | 0.51 | 0.50 | 87 | 1009.3 |
| 20260903201506 | 57 | 171 | 1.0 | 5.0 | 0.01 | 0.50 | 0.49 | 88 | 1009.3 |
| 20260903201007 | 57 | 76 | 0.0 | 4.0 | 0.02 | 0.50 | 0.49 | 89 | 1009.3 |
| 20260903200512 | 57 | 148 | 0.0 | 2.0 | 0.03 | 0.50 | 0.49 | 91 | 1009.4 |
| 20260903200506 | 57 | 148 | 0.0 | 2.0 | 0.02 | 0.50 | 0.49 | 90 | 1009.4 |
| 20260903195506 | 57 | 55 | 0.0 | 5.0 | 0.03 | 0.50 | 0.49 | 92 | 1009.4 |
| 20260903195006 | 57 | 175 | 1.0 | 5.0 | 0.04 | 0.51 | 0.49 | 92 | 1009.3 |
| 20260903194508 | 57 | 179 | 1.0 | 4.0 | 0.04 | 0.51 | 0.49 | 93 | 1009.4 |
| 20260903194011 | 56 | 163 | 0.0 | 4.0 | 0.05 | 0.51 | 0.49 | 92 | 1009.3 |
| 20260903194006 | 57 | 187 | 1.0 | 4.0 | 0.04 | 0.51 | 0.49 | 93 | 1009.3 |
| 20260903193005 | 56 | 165 | 0.0 | 3.0 | 0.06 | 0.51 | 0.49 | 92 | 1009.3 |
| 20260903192504 | 56 | 163 | 0.0 | 3.0 | 0.06 | 0.50 | 0.49 | 92 | 1009.4 |
| 20260903192010 | 56 | 171 | 1.0 | 4.0 | 0.07 | 0.50 | 0.48 | 93 | 1009.5 |
| 20260903192004 | 56 | 162 | 0.0 | 3.0 | 0.08 | 0.51 | 0.48 | 92 | 1009.4 |
| 20260903191005 | 56 | 165 | 1.0 | 4.0 | 0.07 | 0.50 | 0.47 | 93 | 1009.5 |
| 20260903190504 | 56 | 169 | 2.0 | 4.0 | 0.07 | 0.50 | 0.47 | 92 | 1009.6 |
| 20260903190004 | 56 | 164 | 1.0 | 5.0 | 0.06 | 0.49 | 0.46 | 92 | 1009.5 |
| 20260903185505 | 56 | 170 | 0.0 | 5.0 | 0.06 | 0.50 | 0.46 | 92 | 1009.5 |
| 20260903185004 | 56 | 167 | 0.0 | 4.0 | 0.05 | 0.49 | 0.45 | 93 | 1009.4 |
| 20260903184502 | 56 | 172 | 1.0 | 4.0 | 0.05 | 0.49 | 0.45 | 92 | 1009.5 |
| 20260903184002 | 56 | 167 | 1.0 | 5.0 | 0.05 | 0.50 | 0.45 | 92 | 1009.6 |
| 20260903183502 | 57 | 161 | 2.0 | 5.0 | 0.04 | 0.49 | 0.44 | 92 | 1009.5 |
| 20260903183008 | 57 | 179 | 1.0 | 4.0 | 0.02 | 0.48 | 0.42 | 92 | 1009.3 |
| 20260903183002 | 57 | 171 | 2.0 | 5.0 | 0.03 | 0.49 | 0.43 | 92 | 1009.4 |
| 20260903182002 | 57 | 190 | 1.0 | 5.0 | 0.01 | 0.46 | 0.41 | 91 | 1009.3 |
| 20260903181503 | 57 | 163 | 1.0 | 6.0 | 0.01 | 0.47 | 0.40 | 91 | 1009.3 |
| 20260903181003 | 57 | 172 | 1.0 | 6.0 | 0.01 | 0.47 | 0.40 | 91 | 1009.2 |
| 20260903180501 | 57 | 115 | 1.0 | 5.0 | 0.01 | 0.47 | 0.40 | 91 | 1009.2 |
| 20260903180002 | 57 | 206 | 1.0 | 5.0 | 0.01 | 0.48 | 0.40 | 91 | 1009.2 |
| 20260903175501 | 57 | 176 | 1.0 | 5.0 | 0.01 | 0.49 | 0.40 | 91 | 1009.2 |
| 20260903175001 | 57 | 198 | 1.0 | 6.0 | 0.01 | 0.50 | 0.40 | 91 | 1009.2 |
| 20260903174500 | 57 | 189 | 1.0 | 6.0 | 0.01 | 0.51 | 0.40 | 90 | 1009.1 |
| 20260903174004 | 57 | 167 | 1.0 | 6.0 | 0.01 | 0.53 | 0.40 | 92 | 1009.2 |
| 20260903174000 | 57 | 163 | 1.0 | 6.0 | 0.01 | 0.52 | 0.40 | 91 | 1009.2 |
| 20260903173613 | 57 | 177 | 2.0 | 9.0 | 0.01 | 0.53 | 0.40 | 91 | 1009.1 |
| 20260903172959 | 57 | 147 | 2.0 | 9.0 | 0.01 | 0.53 | 0.40 | 92 | 1009.1 |
| 20260903172000 | 57 | 227 | 3.0 | 8.0 | 0.00 | 0.52 | 0.40 | 90 | 1009.1 |
| 20260903171500 | 57 | 171 | 3.0 | 9.0 | 0.00 | 0.52 | 0.39 | 90 | 1009.1 |
| 20260903171005 | 58 | 99 | 3.0 | 12.0 | 0.01 | 0.52 | 0.39 | 91 | 1009.1 |
| 20260903171001 | 57 | 178 | 3.0 | 9.0 | 0.00 | 0.52 | 0.39 | 90 | 1009.1 |
| 20260903170613 | 58 | 211 | 2.0 | 12.0 | 0.01 | 0.52 | 0.39 | 92 | 1009.0 |
| 20260903165500 | 57 | 184 | 2.0 | 7.0 | 0.01 | 0.53 | 0.39 | 93 | 1009.0 |
| 20260903165000 | 57 | 163 | 2.0 | 7.0 | 0.02 | 0.53 | 0.39 | 92 | 1009.0 |
| 20260903164457 | 57 | 177 | 2.0 | 7.0 | 0.02 | 0.53 | 0.39 | 92 | 1009.1 |
| 20260903163959 | 57 | 156 | 2.0 | 7.0 | 0.04 | 0.54 | 0.39 | 92 | 1009.1 |
| 20260903163503 | 57 | 170 | 1.0 | 7.0 | 0.04 | 0.54 | 0.39 | 93 | 1009.1 |
| 20260903163458 | 57 | 184 | 2.0 | 7.0 | 0.04 | 0.54 | 0.39 | 93 | 1009.2 |
| 20260903163111 | 56 | 169 | 0.0 | 3.0 | 0.06 | 0.55 | 0.39 | 94 | 1009.3 |
| 20260903162459 | 56 | 173 | 1.0 | 5.0 | 0.05 | 0.54 | 0.39 | 93 | 1009.2 |
| 20260903161501 | 56 | 177 | 1.0 | 4.0 | 0.06 | 0.55 | 0.39 | 93 | 1009.4 |
| 20260903161456 | 56 | 69 | 1.0 | 4.0 | 0.06 | 0.55 | 0.39 | 94 | 1009.3 |
| 20260903161109 | 55 | 189 | 1.0 | 3.0 | 0.06 | 0.54 | 0.38 | 93 | 1009.5 |
| 20260903160456 | 55 | 175 | 1.0 | 3.0 | 0.06 | 0.54 | 0.38 | 93 | 1009.4 |
| 20260903160109 | 55 | 157 | 1.0 | 2.0 | 0.08 | 0.55 | 0.38 | 93 | 1009.5 |
| 20260903154954 | 55 | 131 | 0.0 | 2.0 | 0.09 | 0.54 | 0.38 | 93 | 1009.5 |
| 20260903154455 | 55 | 243 | 0.0 | 2.0 | 0.11 | 0.54 | 0.37 | 93 | 1009.5 |
| 20260903154000 | 55 | 21 | 0.0 | 2.0 | 0.10 | 0.52 | 0.35 | 94 | 1009.7 |
| 20260903153955 | 55 | 190 | 0.0 | 2.0 | 0.10 | 0.52 | 0.35 | 94 | 1009.7 |
| 20260903152951 | 55 | 21 | 0.0 | 2.0 | 0.10 | 0.52 | 0.35 | 93 | 1009.6 |
| 20260903152452 | 55 | 165 | 0.0 | 2.0 | 0.10 | 0.51 | 0.34 | 93 | 1009.6 |
| 20260903151950 | 55 | 165 | 0.0 | 2.0 | 0.09 | 0.50 | 0.33 | 93 | 1009.7 |
| 20260903151449 | 55 | 165 | 0.0 | 2.0 | 0.11 | 0.50 | 0.33 | 95 | 1009.6 |
| 20260903150945 | 54 | 165 | 0.0 | 2.0 | 0.12 | 0.50 | 0.33 | 94 | 1009.6 |
| 20260903150451 | 54 | 165 | 0.0 | 2.0 | 0.12 | 0.49 | 0.32 | 93 | 1009.7 |
| 20260903150445 | 54 | 165 | 0.0 | 2.0 | 0.12 | 0.49 | 0.32 | 94 | 1009.7 |
| 20260903145447 | 54 | 165 | 0.0 | 2.0 | 0.10 | 0.47 | 0.31 | 93 | 1009.7 |
| 20260903144946 | 54 | 165 | 0.0 | 2.0 | 0.10 | 0.45 | 0.28 | 93 | 1009.7 |
| 20260903144446 | 54 | 165 | 0.0 | 2.0 | 0.09 | 0.43 | 0.26 | 93 | 1009.6 |
| 20260903143947 | 54 | 165 | 0.0 | 2.0 | 0.09 | 0.42 | 0.25 | 93 | 1009.6 |
| 20260903143451 | 54 | 163 | 0.0 | 4.0 | 0.09 | 0.42 | 0.25 | 93 | 1009.3 |
| 20260903143447 | 54 | 163 | 0.0 | 2.0 | 0.09 | 0.42 | 0.25 | 93 | 1009.5 |
| 20260903142444 | 54 | 163 | 1.0 | 4.0 | 0.08 | 0.41 | 0.25 | 93 | 1009.4 |
| 20260903141943 | 54 | 183 | 1.0 | 4.0 | 0.07 | 0.40 | 0.23 | 93 | 1009.3 |
| 20260903141443 | 54 | 180 | 1.0 | 4.0 | 0.06 | 0.39 | 0.22 | 93 | 1009.3 |
| 20260903140943 | 54 | 157 | 2.0 | 6.0 | 0.05 | 0.38 | 0.21 | 93 | 1009.2 |
| 20260903140449 | 54 | 169 | 2.0 | 6.0 | 0.04 | 0.37 | 0.20 | 92 | 1009.2 |
| 20260903140445 | 54 | 170 | 2.0 | 6.0 | 0.04 | 0.37 | 0.20 | 93 | 1009.3 |
| 20260903135444 | 54 | 165 | 2.0 | 6.0 | 0.04 | 0.37 | 0.20 | 93 | 1009.1 |
| 20260903134941 | 54 | 163 | 2.0 | 6.0 | 0.02 | 0.35 | 0.18 | 92 | 1009.2 |
| 20260903134442 | 54 | 167 | 2.0 | 6.0 | 0.02 | 0.34 | 0.17 | 92 | 1009.2 |
| 20260903133941 | 54 | 170 | 2.0 | 7.0 | 0.01 | 0.33 | 0.17 | 92 | 1009.0 |
| 20260903133441 | 54 | 174 | 3.0 | 7.0 | 0.01 | 0.33 | 0.16 | 92 | 1009.0 |
| 20260903132944 | 54 | 157 | 2.0 | 6.0 | 0.01 | 0.33 | 0.16 | 93 | 1008.8 |
| 20260903132940 | 54 | 180 | 0.0 | 4.0 | 0.01 | 0.33 | 0.16 | 93 | 1008.7 |
| 20260903131940 | 54 | 175 | 1.0 | 5.0 | 0.02 | 0.33 | 0.16 | 93 | 1008.6 |
| 20260903131440 | 54 | 161 | 1.0 | 5.0 | 0.02 | 0.33 | 0.16 | 93 | 1008.8 |
| 20260903130939 | 54 | 171 | 0.0 | 3.0 | 0.03 | 0.33 | 0.16 | 93 | 1008.8 |
| 20260903130437 | 54 | 203 | 0.0 | 3.0 | 0.04 | 0.33 | 0.16 | 93 | 1008.7 |
| 20260903125940 | 54 | 165 | 0.0 | 2.0 | 0.08 | 0.33 | 0.16 | 93 | 1008.8 |
| 20260903125936 | 54 | 170 | 0.0 | 2.0 | 0.06 | 0.33 | 0.16 | 93 | 1008.7 |
| 20260903125549 | 54 | 163 | 0.0 | 3.0 | 0.12 | 0.32 | 0.15 | 93 | 1008.9 |
| 20260903124935 | 54 | 164 | 0.0 | 2.0 | 0.12 | 0.33 | 0.16 | 93 | 1008.9 |
| 20260903123937 | 54 | 167 | 0.0 | 3.0 | 0.13 | 0.32 | 0.15 | 93 | 1008.8 |
| 20260903123435 | 54 | 134 | 0.0 | 2.0 | 0.13 | 0.32 | 0.15 | 92 | 1008.8 |
| 20260903122935 | 54 | 130 | 0.0 | 2.0 | 0.13 | 0.32 | 0.15 | 92 | 1008.9 |
| 20260903122436 | 54 | 175 | 0.0 | 2.0 | 0.13 | 0.32 | 0.15 | 92 | 1009.0 |
| 20260903121935 | 54 | 169 | 0.0 | 2.0 | 0.12 | 0.31 | 0.14 | 92 | 1009.0 |
| 20260903121440 | 54 | 148 | 0.0 | 2.0 | 0.12 | 0.30 | 0.13 | 92 | 1009.1 |
| 20260903121436 | 54 | 169 | 0.0 | 2.0 | 0.13 | 0.31 | 0.14 | 92 | 1009.0 |
| 20260903120433 | 54 | 179 | 0.0 | 2.0 | 0.11 | 0.29 | 0.13 | 92 | 1009.1 |
| 20260903115933 | 54 | 178 | 1.0 | 5.0 | 0.09 | 0.27 | 0.11 | 92 | 1009.2 |
| 20260903115435 | 54 | 178 | 1.0 | 5.0 | 0.07 | 0.25 | 0.08 | 91 | 1009.2 |
| 20260903114938 | 55 | 179 | 3.0 | 6.0 | 0.02 | 0.20 | 0.03 | 91 | 1009.3 |
| 20260903114933 | 54 | 171 | 3.0 | 6.0 | 0.03 | 0.21 | 0.05 | 91 | 1009.2 |
| 20260903113933 | 55 | 163 | 2.0 | 5.0 | 0.01 | 0.19 | 0.02 | 91 | 1009.1 |
| 20260903113432 | 55 | 165 | 1.0 | 5.0 | 0.01 | 0.19 | 0.02 | 91 | 1009.1 |
| 20260903112931 | 55 | 167 | 2.0 | 5.0 | 0.01 | 0.19 | 0.02 | 90 | 1009.0 |
| 20260903112438 | 54 | 174 | 1.0 | 3.0 | 0.00 | 0.18 | 0.01 | 91 | 1009.1 |
| 20260903112431 | 55 | 173 | 2.0 | 5.0 | 0.01 | 0.19 | 0.02 | 91 | 1009.0 |
| 20260903111931 | 54 | 180 | 1.0 | 3.0 | 0.01 | 0.19 | 0.02 | 91 | 1009.0 |
| 20260903110933 | 54 | 183 | 0.0 | 3.0 | 0.00 | 0.18 | 0.01 | 91 | 1008.9 |
| 20260903110431 | 54 | 180 | 1.0 | 3.0 | 0.00 | 0.18 | 0.01 | 91 | 1008.9 |
| 20260903105932 | 54 | 172 | 0.0 | 3.0 | 0.00 | 0.18 | 0.01 | 91 | 1008.9 |
| 20260903105433 | 54 | 168 | 0.0 | 3.0 | 0.00 | 0.18 | 0.01 | 90 | 1008.9 |
| 20260903104931 | 54 | 168 | 1.0 | 4.0 | 0.00 | 0.18 | 0.01 | 91 | 1009.0 |
| 20260903104430 | 55 | 166 | 1.0 | 4.0 | 0.00 | 0.18 | 0.01 | 90 | 1009.1 |
| 20260903103931 | 55 | 169 | 2.0 | 4.0 | 0.00 | 0.18 | 0.01 | 90 | 1009.0 |
| 20260903103429 | 55 | 172 | 1.0 | 4.0 | 0.00 | 0.18 | 0.01 | 90 | 1008.9 |
| 20260903102929 | 55 | 175 | 1.0 | 3.0 | 0.00 | 0.18 | 0.01 | 90 | 1009.1 |
| 20260903102431 | 55 | 186 | 1.0 | 2.0 | 0.00 | 0.18 | 0.01 | 90 | 1009.0 |
| 20260903101929 | 55 | 171 | 1.0 | 3.0 | 0.00 | 0.18 | 0.01 | 90 | 1009.1 |
| 20260903101429 | 55 | 173 | 1.0 | 3.0 | 0.00 | 0.18 | 0.01 | 90 | 1009.0 |
| 20260903100929 | 55 | 172 | 1.0 | 3.0 | 0.00 | 0.18 | 0.01 | 90 | 1009.0 |
| 20260903100435 | 55 | 165 | 1.0 | 4.0 | 0.00 | 0.18 | 0.01 | 90 | 1009.1 |
| 20260903100430 | 55 | 175 | 1.0 | 4.0 | 0.00 | 0.18 | 0.01 | 90 | 1009.0 |
| 20260903095428 | 55 | 171 | 1.0 | 5.0 | 0.00 | 0.18 | 0.01 | 90 | 1009.1 |
| 20260903094927 | 55 | 169 | 1.0 | 5.0 | 0.00 | 0.18 | 0.01 | 90 | 1009.1 |
| 20260903094427 | 55 | 171 | 1.0 | 4.0 | 0.00 | 0.18 | 0.01 | 89 | 1009.1 |
| 20260903093927 | 55 | 171 | 1.0 | 4.0 | 0.00 | 0.18 | 0.01 | 89 | 1009.0 |
| 20260903093427 | 55 | 169 | 2.0 | 4.0 | 0.01 | 0.18 | 0.01 | 89 | 1009.1 |
| 20260903092927 | 55 | 168 | 2.0 | 4.0 | 0.01 | 0.18 | 0.01 | 89 | 1009.1 |
| 20260903092429 | 55 | 180 | 2.0 | 5.0 | 0.01 | 0.18 | 0.01 | 89 | 1009.1 |
| 20260903091927 | 55 | 178 | 2.0 | 5.0 | 0.01 | 0.18 | 0.01 | 89 | 1009.0 |
| 20260903091433 | 55 | 173 | 2.0 | 6.0 | 0.01 | 0.18 | 0.01 | 89 | 1009.1 |
| 20260903091429 | 55 | 180 | 2.0 | 6.0 | 0.01 | 0.18 | 0.01 | 89 | 1009.1 |
| 20260903090427 | 55 | 175 | 3.0 | 6.0 | 0.01 | 0.18 | 0.01 | 89 | 1009.1 |
| 20260903085925 | 55 | 161 | 3.0 | 6.0 | 0.01 | 0.18 | 0.01 | 89 | 1009.2 |
| 20260903085425 | 55 | 155 | 3.0 | 8.0 | 0.01 | 0.18 | 0.01 | 89 | 1009.2 |
| 20260903084925 | 55 | 178 | 4.0 | 8.0 | 0.01 | 0.18 | 0.01 | 89 | 1009.2 |
| 20260903084425 | 55 | 171 | 4.0 | 8.0 | 0.01 | 0.18 | 0.01 | 89 | 1009.2 |
| 20260903083926 | 56 | 175 | 4.0 | 8.0 | 0.01 | 0.18 | 0.01 | 89 | 1009.3 |
| 20260903083425 | 56 | 200 | 3.0 | 7.0 | 0.00 | 0.17 | 0.00 | 89 | 1009.4 |
| 20260903082925 | 56 | 172 | 2.0 | 5.0 | 0.00 | 0.17 | 0.00 | 89 | 1009.3 |
| 20260903082425 | 55 | 169 | 2.0 | 5.0 | 0.00 | 0.17 | 0.00 | 89 | 1009.3 |
| 20260903081929 | 55 | 182 | 2.0 | 5.0 | 0.00 | 0.17 | 0.00 | 89 | 1009.2 |
| 20260903081925 | 55 | 182 | 2.0 | 5.0 | 0.00 | 0.17 | 0.00 | 89 | 1009.3 |
| 20260903080926 | 56 | 163 | 2.0 | 6.0 | 0.00 | 0.17 | 0.00 | 89 | 1009.3 |
| 20260903080426 | 56 | 167 | 2.0 | 6.0 | 0.00 | 0.17 | 0.00 | 89 | 1009.2 |
| 20260903075924 | 56 | 172 | 2.0 | 6.0 | 0.00 | 0.17 | 0.00 | 90 | 1009.2 |
| 20260903075426 | 56 | 167 | 2.0 | 6.0 | 0.00 | 0.17 | 0.00 | 90 | 1009.4 |
| 20260903074924 | 56 | 170 | 2.0 | 6.0 | 0.00 | 0.17 | 0.00 | 90 | 1009.3 |
| 20260903074422 | 56 | 169 | 2.0 | 4.0 | 0.00 | 0.17 | 0.00 | 90 | 1009.3 |
| 20260903073922 | 56 | 164 | 2.0 | 6.0 | 0.00 | 0.17 | 0.00 | 90 | 1009.3 |
| 20260903073424 | 56 | 166 | 2.0 | 6.0 | 0.00 | 0.17 | 0.00 | 90 | 1009.4 |
| 20260903072923 | 56 | 174 | 2.0 | 5.0 | 0.00 | 0.17 | 0.00 | 90 | 1009.3 |
| 20260903072423 | 56 | 173 | 1.0 | 5.0 | 0.00 | 0.17 | 0.00 | 91 | 1009.3 |
| 20260903071922 | 56 | 171 | 0.0 | 5.0 | 0.00 | 0.17 | 0.00 | 91 | 1009.3 |
| 20260903071425 | 55 | 170 | 1.0 | 5.0 | 0.00 | 0.17 | 0.00 | 91 | 1009.3 |
| 20260903070928 | 55 | 163 | 1.0 | 3.0 | 0.00 | 0.17 | 0.17 | 91 | 1009.3 |
| 20260903070924 | 55 | 169 | 1.0 | 5.0 | 0.00 | 0.17 | 0.00 | 91 | 1009.3 |
| 20260903070422 | 55 | 190 | 1.0 | 2.0 | 0.00 | 0.17 | 0.00 | 91 | 1009.3 |
| 20260903065421 | 55 | 178 | 1.0 | 5.0 | 0.00 | 0.17 | 0.17 | 92 | 1009.1 |
| 20260903064922 | 54 | 217 | 1.0 | 5.0 | 0.00 | 0.17 | 0.17 | 92 | 1009.2 |
| 20260903064421 | 53 | 312 | 0.0 | 0.0 | 0.00 | 0.17 | 0.17 | 91 | 1009.2 |
| 20260903063921 | 53 | 312 | 0.0 | 0.0 | 0.00 | 0.17 | 0.17 | 91 | 1009.2 |
| 20260903063423 | 53 | 312 | 0.0 | 2.0 | 0.00 | 0.17 | 0.17 | 91 | 1009.3 |
| 20260903062921 | 53 | 312 | 0.0 | 2.0 | 0.00 | 0.17 | 0.17 | 90 | 1009.3 |
| 20260903062427 | 53 | 312 | 0.0 | 2.0 | 0.00 | 0.17 | 0.17 | 90 | 1009.4 |
| 20260903061926 | 54 | 313 | 0.0 | 2.0 | 0.00 | 0.17 | 0.17 | 89 | 1009.4 |
| 20260903061922 | 54 | 313 | 0.0 | 2.0 | 0.00 | 0.17 | 0.17 | 90 | 1009.3 |
| 20260903060921 | 54 | 313 | 0.0 | 2.0 | 0.00 | 0.17 | 0.17 | 90 | 1009.4 |
| 20260903060536 | 54 | 112 | 0.0 | 2.0 | 0.00 | 0.17 | 0.17 | 88 | 1009.5 |
| 20260903060425 | 54 | 313 | 0.0 | 2.0 | 0.00 | 0.17 | 0.17 | 89 | 1009.4 |
| 20260903060421 | 54 | 313 | 0.0 | 2.0 | 0.00 | 0.17 | 0.17 | 89 | 1009.4 |
| 20260903055421 | 54 | 313 | 0.0 | 2.0 | 0.00 | 0.17 | 0.17 | 89 | 1009.4 |
| 20260903054921 | 54 | 313 | 0.0 | 2.0 | 0.00 | 0.17 | 0.17 | 89 | 1009.4 |
| 20260903053921 | 55 | 180 | 0.0 | 2.0 | 0.00 | 0.17 | 0.17 | 88 | 1009.4 |
| 20260903053421 | 55 | 180 | 0.0 | 2.0 | 0.00 | 0.17 | 0.17 | 88 | 1009.4 |
| 20260903052919 | 55 | 180 | 1.0 | 3.0 | 0.00 | 0.17 | 0.17 | 88 | 1009.4 |
| 20260903052427 | 55 | 164 | 2.0 | 5.0 | 0.00 | 0.17 | 0.17 | 89 | 1009.3 |
| 20260903052420 | 55 | 213 | 2.0 | 5.0 | 0.00 | 0.17 | 0.17 | 88 | 1009.5 |
| 20260903051918 | 55 | 216 | 2.0 | 6.0 | 0.00 | 0.17 | 0.17 | 88 | 1009.4 |
| 20260903051420 | 55 | 170 | 3.0 | 6.0 | 0.00 | 0.17 | 0.17 | 88 | 1009.3 |
| 20260903050420 | 55 | 176 | 2.0 | 5.0 | 0.00 | 0.17 | 0.17 | 89 | 1009.2 |
| 20260903045925 | 55 | 163 | 2.0 | 5.0 | 0.00 | 0.17 | 0.17 | 89 | 1009.3 |
| 20260903045420 | 55 | 178 | 1.0 | 4.0 | 0.00 | 0.17 | 0.17 | 90 | 1009.3 |
| 20260903044917 | 54 | 179 | 0.0 | 2.0 | 0.00 | 0.17 | 0.17 | 90 | 1009.4 |
| 20260903044422 | 54 | 179 | 0.0 | 2.0 | 0.00 | 0.17 | 0.17 | 90 | 1009.4 |
| 20260903043917 | 54 | 179 | 0.0 | 2.0 | 0.00 | 0.17 | 0.17 | 90 | 1009.3 |
| 20260903043418 | 54 | 179 | 0.0 | 2.0 | 0.00 | 0.17 | 0.17 | 90 | 1009.3 |
| 20260903042917 | 54 | 179 | 0.0 | 2.0 | 0.00 | 0.17 | 0.17 | 91 | 1009.2 |
| 20260903042417 | 53 | 179 | 0.0 | 2.0 | 0.00 | 0.17 | 0.17 | 90 | 1009.2 |
| 20260903041917 | 53 | 179 | 0.0 | 0.0 | 0.00 | 0.17 | 0.17 | 91 | 1009.2 |
| 20260903041418 | 53 | 179 | 0.0 | 0.0 | 0.00 | 0.17 | 0.17 | 90 | 1009.1 |
| 20260903040917 | 53 | 179 | 0.0 | 0.0 | 0.00 | 0.17 | 0.17 | 89 | 1009.0 |
| 20260903040420 | 53 | 179 | 0.0 | 0.0 | 0.00 | 0.17 | 0.17 | 87 | 1009.0 |
| 20260903040416 | 53 | 179 | 0.0 | 0.0 | 0.00 | 0.17 | 0.17 | 89 | 1009.0 |
| 20260903040028 | 53 | 179 | 0.0 | 2.0 | 0.00 | 0.17 | 0.17 | 87 | 1008.9 |
| 20260903034916 | 53 | 179 | 0.0 | 2.0 | 0.00 | 0.17 | 0.17 | 86 | 1008.8 |
| 20260903034415 | 54 | 179 | 0.0 | 2.0 | 0.00 | 0.17 | 0.17 | 85 | 1008.9 |
| 20260903033915 | 54 | 179 | 0.0 | 2.0 | 0.00 | 0.17 | 0.17 | 85 | 1008.7 |
| 20260903033416 | 54 | 179 | 0.0 | 2.0 | 0.00 | 0.17 | 0.17 | 84 | 1008.7 |
| 20260903032915 | 55 | 179 | 0.0 | 2.0 | 0.00 | 0.17 | 0.17 | 84 | 1008.6 |
| 20260903032420 | 56 | 179 | 1.0 | 4.0 | 0.00 | 0.17 | 0.17 | 80 | 1008.4 |
| 20260903032415 | 56 | 179 | 0.0 | 2.0 | 0.00 | 0.17 | 0.17 | 82 | 1008.5 |
| 20260903031415 | 57 | 179 | 1.0 | 4.0 | 0.00 | 0.17 | 0.17 | 78 | 1008.5 |
| 20260903030913 | 58 | 198 | 1.0 | 5.0 | 0.00 | 0.17 | 0.17 | 77 | 1008.4 |
| 20260903030412 | 58 | 198 | 1.0 | 5.0 | 0.00 | 0.17 | 0.17 | 76 | 1008.4 |
| 20260903025913 | 58 | 223 | 1.0 | 4.0 | 0.00 | 0.17 | 0.17 | 76 | 1008.2 |
| 20260903025413 | 58 | 189 | 1.0 | 2.0 | 0.00 | 0.17 | 0.17 | 77 | 1008.2 |
| 20260903024913 | 58 | 189 | 1.0 | 4.0 | 0.00 | 0.17 | 0.17 | 76 | 1008.1 |
| 20260903024413 | 58 | 175 | 1.0 | 4.0 | 0.00 | 0.17 | 0.17 | 77 | 1008.1 |